Regional Weather Roundup
Issued by NWS Sioux Falls, SD

Home | Current Version | Previous Version | Graphics & Text | Print | Product List | Glossary Off
Versions: 1 2 3 4 5 6 7 8 9 10 11 12 13 14 15 16 17 18 19 20 21 22 23 24 25 26 27 28 29 30 31 32 33 34 35 36 37 38 39 40 41 42 43 44 45 46 47 48 49 50

045
ASUS43 KFSD 061210
RWRFSD

WEATHER ROUNDUP FOR SE SOUTH DAKOTA/SW MINNESOTA/NW IOWA
NATIONAL WEATHER SERVICE SIOUX FALLS SD
700 AM CDT FRI MAY 06 2016

NOTE: "FAIR" INDICATES FEW OR NO CLOUDS BELOW 12,000 FEET WITH NO
SIGNIFICANT WEATHER AND OR OBSTRUCTIONS TO VISIBILITY.


SDZ038>040-050-052>070-061300-
SOUTHEAST SOUTH DAKOTA

CITY           SKY/WX    TMP DP  RH WIND       PRES   REMARKS
CHAMBERLAIN    CLEAR     61  53  75 CALM      29.86S
6HR MIN TEMP:  60; 6HR MAX TEMP:  71;

HURON          CLEAR     60  50  69 S14       29.81S
6HR MIN TEMP:  59; 6HR MAX TEMP:  63;

MADISON        FAIR      59  46  63 SW16G23   29.89S
MITCHELL       NOT AVBL
SIOUX FALLS    NOT AVBL
$$

MNZ071-072-080-081-089-090-097-098-061300-
SOUTHWEST MINNESOTA

CITY           SKY/WX    TMP DP  RH WIND       PRES   REMARKS
JACKSON        CLEAR     55  39  54 SW12      29.94S
LUVERNE        CLOUDY    48  41  76 S6        29.93S
MARSHALL       NOT AVBL
MONTEVIDEO     CLOUDY    59  45  58 SW6       29.84F
PIPESTONE      CLOUDY    55  45  67 S9        29.90F
TRACY          CLOUDY    63  45  52 SW20      29.88S
WINDOM         CLEAR     59  43  55 SW9       29.92S
$$

IAZ001>003-012>014-020>022-031-032-NEZ013-014-SDZ071-061300-
NORTHWEST IOWA

CITY           SKY/WX    TMP DP  RH WIND       PRES   REMARKS
CHEROKEE       CLEAR     49  44  82 CALM      29.97R
DENISON        CLEAR     54  43  66 CALM      29.98R
LE MARS        CLEAR     52  45  76 S3        29.97R
ORANGE CITY    CLEAR     52  45  76 SW5       29.96R
SHELDON        CLEAR     54  43  66 S9        29.94R
SIOUX CITY     NOT AVBL
SPENCER        NOT AVBL
STORM LAKE     CLEAR     55  43  62 SW8       29.98R
$$

ABBREVIATIONS USED IN REMARKS
   TC - TEMPERATURE IN CELSIUS
  WCI - WIND CHILL INDEX
   HX - HEAT INDEX
  VSB - VISIBILITY





USA.gov is the U.S. government's official web portal to all federal, state and local government web resources and services.